Location: Newark
(16.3678°N, 77.8722°E)
Time: 04:35:23
(UTC+00:00)

S-56A Canister/Altair - Pass Details

Date: 12 December 2019
Orbit: 634 x 2498 km, 38.9° (Epoch: 23 January)

Event Time Altitude Azimuth Distance (km) Brightness Sun altitude
Rises 00:42:16 0° 202° (SSW) 4,298 11.4 -6.2°
Reaches altitude 10° 00:45:10 10° 193° (SSW) 3,574 11.1 -5.6°
Maximum altitude 00:53:40 36° 130° (SE) 2,706 11.2 -3.7°
Drops below altitude 10° 01:05:12 10° 71° (ENE) 4,882 12.4 -1.2°
Sets 01:09:52 0° 64° (ENE) 6,051 12.7 -0.2°
